[[{"header":{"parameterUnit":"m.s-1","parameterCategory":1,"la1":30.2991,"la2":30.254,"lo1":-89.0895,"lo2":-89.0444,"dy":0.0017,"dx":0.0017,"nx":28,"ny":28,"refTime":"2024-08-31T21:00:00:Z","depth":0,"parameterNumber":2,"parameterNumberName":"U-component_of_WINDS"},"data":[0,0,0,0,0,0,0,0,0,0,0,0,0,0,0,0,0,0,0,0,0,0,0,0,0,0,0,0,0,0,0,0,0,0,0,0,0,0,0,0,0,0,0,0,0,0,0,0,0,0,0,0,0,0,0,0,0,0,-3.0266,-3.0267,0,-3.0291,-3.0292,-3.0292,-3.016,-3.0156,-3.0152,-3.0148,-3.0181,-3.0186,-3.019,0,0,0,0,0,0,0,0,0,0,0,0,0,-3.0111,-3.0115,-3.0266,-3.0267,-3.0267,-3.0291,-3.0292,-3.0292,-3.016,-3.0156,-3.0151,-3.0147,-3.018,-3.0185,-3.019,0,0,0,0,0,0,0,0,0,0,0,0,0,-3.0162,-3.0116,-3.0266,-3.0204,-3.0198,-3.0291,-3.0292,-3.0292,-3.0161,-3.0156,-3.015,-3.0144,-3.0178,-3.0185,-3.0191,-3.0347,0,0,-3.0211,-3.0214,0,0,0,0,0,0,0,0,-3.0159,-3.0168,-3.0213,-3.0208,-3.0202,-3.0216,-3.0249,-3.0311,-3.0163,-3.0176,-3.0148,-3.0142,-3.0198,-3.0203,-3.022,-3.0349,-3.035,-3.0212,-3.0216,-3.0219,-3.0221,0,0,0,0,0,0,0,-3.0156,-3.0166,-3.0276,-3.0214,-3.0207,-3.0177,-3.0178,-3.026,-3.0219,-3.0174,-3.0164,-3.0169,-3.0194,-3.0214,-3.022,-3.035,-3.0212,-3.0218,-3.0222,-3.0224,-3.0609,-3.0614,0,0,0,0,0,0,-3.016,-3.0164,-3.0275,-3.0277,-3.0166,-3.0184,-3.0185,-3.0218,-3.0218,-3.0212,-3.0174,-3.0163,-3.0206,-3.0212,-3.0221,-3.0403,-3.0219,-3.0225,-3.0229,-3.0602,-3.061,-3.0617,0,0,0,0,0,0,-3.0157,-3.0171,-3.0274,-3.0218,-3.0229,-3.0193,-3.0231,-3.0221,-3.0241,-3.0217,-3.021,-3.0201,-3.0201,-3.0211,-3.0316,-3.0403,-3.0228,-3.0234,-3.0595,-3.0605,-3.0613,-3.077,0,0,0,0,0,0,-3.0153,-3.017,-3.0228,-3.022,-3.0232,-3.0368,-3.0236,-3.0226,-3.0252,-3.0238,-3.0241,-3.0236,-3.0198,-3.0307,-3.0323,-3.0409,-3.0239,-3.0587,-3.0599,-3.061,-3.0757,-3.0784,-3.0807,0,0,0,0,0,-3.0148,-3.0272,-3.0231,-3.0246,-3.0303,-3.0373,-3.038,-3.0331,-3.0259,-3.0318,-3.0303,-3.0236,-3.0391,-3.0319,-3.0336,-3.0425,-3.0582,-3.0596,-3.0609,-3.0746,-3.0779,-3.0806,0,0,0,0,0,0,-3.0294,-3.027,-3.0224,-3.035,-3.0364,-3.0351,-3.0423,-3.0367,-3.0404,-3.0389,-3.0329,-3.0331,-3.0447,-3.0446,-3.0367,-3.0576,-3.0474,-3.0492,-3.0572,-3.0603,-3.0627,-3.0625,-3.0245,0,0,0,0,0,-3.034,-3.0397,-3.0374,-3.0488,-3.0497,-3.0459,-3.0488,-3.0449,-3.0462,-3.0468,-3.046,-3.0478,-3.053,-3.0566,-3.0613,-3.0756,-3.0756,-3.0826,-3.0851,-3.0871,-3.0888,-3.0964,-3.0995,-3.0663,-3.0662,-3.0662,0,0,-3.0438,-3.0432,-3.0472,-3.0517,-3.0523,-3.0586,-3.0465,-3.0536,-3.0583,-3.048,-3.0577,-3.0573,-3.0589,-3.0714,-3.0768,-3.0717,-3.0979,-3.0889,-3.0905,-3.0911,-3.0982,-3.1013,-3.1041,-3.0672,-3.067,-3.0669,0,0,-3.0646,-3.0647,-3.0741,-3.075,-3.0761,-3.0735,-3.0758,-3.0752,-3.0745,-3.0841,-3.0766,-3.0821,-3.0912,-3.0927,-3.0946,-3.1161,-3.1102,-3.1178,-3.1307,-3.1383,-3.1409,-3.1432,-3.1509,-3.1538,-3.1195,-3.1195,-3.1195,0,-3.0767,-3.0855,-3.0798,-3.0874,-3.0897,-3.0804,-3.09,-3.0912,-3.0939,-3.0958,-3.0899,-3.1011,-3.1015,-3.1142,-3.1195,-3.1213,-3.1239,-3.1178,-3.1409,-3.1432,-3.1452,-3.1526,-3.1555,-3.1204,-3.1203,-3.1202,-3.1201,0,-3.1003,-3.1066,-3.1142,-3.1167,-3.1198,-3.1284,-3.1242,-3.1281,-3.1239,-3.122,-3.1321,-3.1322,-3.1368,-3.1395,-3.1356,-3.1517,-3.1485,-3.1419,-3.1315,-3.1494,-3.1562,-3.159,-3.1218,-3.1214,-3.1211,-3.1209,0,0,-3.1305,-3.1297,-3.1326,-3.1336,-3.1341,-3.139,-3.1473,-3.1515,-3.155,-3.1572,-3.1641,-3.172,-3.1659,-3.1681,-3.1643,-3.1709,-3.188,-3.1634,-3.1634,-3.1681,-3.2059,-3.2109,-3.2143,-3.184,-3.1845,-3.185,-3.2058,0,-3.151,-3.1648,-3.1599,-3.1741,-3.1799,-3.1712,-3.1785,-3.1797,-3.1782,-3.1831,-3.1814,-3.1872,-3.1786,-3.1799,-3.186,-3.1846,-3.1955,-3.183,-3.1906,-3.1909,-3.1905,-3.2178,-3.2231,-3.2428,-3.2084,-3.2089,-3.2092,0,-3.1767,-3.1797,-3.1945,-3.1939,-3.1962,-3.2028,-3.2063,-3.211,-3.2123,-3.2107,-3.2132,-3.208,-3.2163,-3.2059,-3.2173,-3.2089,-3.2117,-3.2115,-3.2122,-3.2128,-3.2012,-3.2192,-3.2489,-3.2519,-3.2133,-3.213,-3.2127,0,-3.1973,-3.2051,-3.2149,-3.2161,-3.2157,-3.2206,-3.2207,-3.2214,-3.2242,-3.2274,-3.2292,-3.2335,-3.2358,-3.2393,-3.2354,-3.2281,-3.2475,-3.2367,-3.2466,-3.2467,-3.2511,-3.2509,-3.2818,-3.2529,-3.2528,-3.2527,-3.2527,0,-3.2207,-3.2301,-3.2241,-3.2302,-3.2405,-3.2349,-3.2453,-3.2445,-3.2452,-3.2511,-3.2439,-3.2497,-3.2442,-3.2495,-3.2466,-3.2566,-3.2577,-3.2568,-3.2559,-3.2575,-3.2576,-3.2593,-3.2579,-3.2535,-3.2534,-3.2532,-3.2531,0,-3.2455,-3.2419,-3.252,-3.2508,-3.2507,-3.2584,-3.2575,-3.2632,-3.2611,-3.2687,-3.2702,-3.267,-3.2729,-3.2693,-3.2754,-3.2734,-3.2865,-3.2837,-3.286,-3.2853,-3.2954,-3.2945,-3.3285,-3.3327,-3.301,-3.3013,-3.3016,0,-3.2607,-3.2677,-3.2672,-3.2706,-3.2711,-3.2766,-3.2794,-3.2742,-3.2775,-3.2795,-3.285,-3.2902,-3.2941,-3.304,-3.3024,-3.3071,-3.3044,-3.316,-3.305,-3.3064,-3.3047,-3.3043,-3.305,-3.3182,-3.3186,-3.3189,-3.3191,0,-3.2881,-3.2859,-3.2902,-3.2939,-3.2975,-3.3002,-3.3023,-3.3055,-3.3003,-3.3044,-3.3102,-3.3133,-3.3194,-3.3247,-3.3286,-3.329,-3.3234,-3.3226,-3.3251,-3.3268,-3.3279,-3.3275,-3.2921,-3.3218,-3.3216,-3.3214,-3.3212,-3.3211,-3.3086,-3.3144,-3.315,-3.32,-3.321,-3.3232,-3.3285,-3.327,-3.3317,-3.3361,-3.3328,-3.3398,-3.341,-3.3456,-3.3467,-3.3522,-3.3476,-3.3512,-3.3522,-3.3532,-3.3546,-3.3269,-3.3529,-3.3528,-3.3528,-3.3527,-3.3526,0,-3.3356,-3.3355,-3.3402,-3.3434,-3.3474,-3.3414,-3.3435,-3.3474,-3.3535,-3.355,-3.3589,-3.3657,-3.3709,-3.3697,-3.3743,-3.379,-3.3765,-3.3804,-3.3801,-3.3803,-3.3585,-3.3558,-3.3824,-3.3824,-3.3823,-3.3823,-3.3823,-3.3823,-3.3502,-3.3597,-3.3577,-3.3678,-3.3676,-3.3742,-3.3759,-3.378,-3.3792,-3.387,-3.3911,-3.3902,-3.3907,-3.3954,-3.3999,-3.3994,-3.4016,-3.4065,-3.4051,-3.3847,-3.3818,-3.379,-3.3765,-3.4069,-3.407,-3.4264,-3.4266,-3.4267]},{"header":{"parameterUnit":"m.s-1","parameterCategory":1,"la1":30.2991,"la2":30.254,"lo1":-89.0895,"lo2":-89.0444,"dy":0.0017,"dx":0.0017,"nx":28,"ny":28,"refTime":"2024-08-31T21:00:00:Z","depth":0,"parameterNumber":3,"parameterNumberName":"V-component_of_WINDS"},"data":[0,0,0,0,0,0,0,0,0,0,0,0,0,0,0,0,0,0,0,0,0,0,0,0,0,0,0,0,0,0,0,0,0,0,0,0,0,0,0,0,0,0,0,0,0,0,0,0,0,0,0,0,0,0,0,0,0,0,-0.7157,-0.7156,0,-0.7098,-0.7097,-0.7096,-0.7085,-0.7086,-0.7086,-0.7087,-0.7024,-0.7022,-0.702,0,0,0,0,0,0,0,0,0,0,0,0,0,-0.7258,-0.7256,-0.7157,-0.7156,-0.7155,-0.7098,-0.7097,-0.7096,-0.7085,-0.7086,-0.7087,-0.7087,-0.7025,-0.7022,-0.702,0,0,0,0,0,0,0,0,0,0,0,0,0,-0.7208,-0.7255,-0.7157,-0.7143,-0.7141,-0.7098,-0.7097,-0.7096,-0.7085,-0.7086,-0.7087,-0.7087,-0.7026,-0.7022,-0.7019,-0.6985,0,0,-0.701,-0.7008,0,0,0,0,0,0,0,0,-0.721,-0.7204,-0.7146,-0.7144,-0.7142,-0.71,-0.7109,-0.7059,-0.7085,-0.7106,-0.7087,-0.7088,-0.7048,-0.7043,-0.7031,-0.6982,-0.6979,-0.7009,-0.7007,-0.7006,-0.7005,0,0,0,0,0,0,0,-0.7214,-0.7206,-0.7133,-0.7145,-0.7143,-0.7139,-0.7133,-0.71,-0.7074,-0.7105,-0.7104,-0.7097,-0.7048,-0.7034,-0.7029,-0.6978,-0.7009,-0.7007,-0.7005,-0.7003,-0.6897,-0.6896,0,0,0,0,0,0,-0.722,-0.7209,-0.7135,-0.7132,-0.7179,-0.7136,-0.7129,-0.7112,-0.7074,-0.7069,-0.7096,-0.7097,-0.7039,-0.7033,-0.7027,-0.6983,-0.7006,-0.7003,-0.7001,-0.6898,-0.6897,-0.6896,0,0,0,0,0,0,-0.7222,-0.7214,-0.7138,-0.717,-0.716,-0.7134,-0.7115,-0.7111,-0.7097,-0.7068,-0.7063,-0.7087,-0.7039,-0.7031,-0.6995,-0.6981,-0.7002,-0.6999,-0.6899,-0.6897,-0.6896,-0.6895,0,0,0,0,0,0,-0.7225,-0.7215,-0.7202,-0.717,-0.7159,-0.7108,-0.7114,-0.7109,-0.7092,-0.7092,-0.7058,-0.7053,-0.7039,-0.7,-0.6992,-0.6976,-0.6996,-0.69,-0.6898,-0.6897,-0.6896,-0.6894,-0.6892,0,0,0,0,0,-0.7229,-0.7204,-0.7201,-0.7192,-0.7142,-0.7107,-0.71,-0.7085,-0.7091,-0.7077,-0.7058,-0.7054,-0.6984,-0.6996,-0.6987,-0.6971,-0.6901,-0.6899,-0.6897,-0.6897,-0.6895,-0.6892,0,0,0,0,0,0,-0.7234,-0.7199,-0.7196,-0.716,-0.7137,-0.7105,-0.7088,-0.7083,-0.7056,-0.7057,-0.7039,-0.7031,-0.6996,-0.698,-0.6995,-0.6935,-0.6943,-0.6939,-0.6946,-0.6943,-0.6941,-0.6945,-0.6994,0,0,0,0,0,-0.7231,-0.7206,-0.7177,-0.7148,-0.7136,-0.7114,-0.7098,-0.7089,-0.7063,-0.7053,-0.7031,-0.7006,-0.6978,-0.696,-0.6933,-0.6895,-0.6886,-0.6878,-0.6876,-0.6875,-0.6871,-0.6848,-0.6844,-0.6889,-0.6889,-0.6889,0,0,-0.7224,-0.7203,-0.7188,-0.7148,-0.7129,-0.7102,-0.7106,-0.7078,-0.7057,-0.7048,-0.7013,-0.6996,-0.6967,-0.6929,-0.6911,-0.6915,-0.6857,-0.6872,-0.6871,-0.6868,-0.6845,-0.6841,-0.6837,-0.6888,-0.6888,-0.6888,0,0,-0.7198,-0.718,-0.7153,-0.7134,-0.7105,-0.709,-0.7083,-0.7053,-0.7041,-0.7006,-0.6998,-0.6973,-0.6926,-0.6904,-0.6887,-0.6853,-0.6848,-0.6845,-0.6832,-0.681,-0.6807,-0.6803,-0.6789,-0.6785,-0.6841,-0.6841,-0.6841,0,-0.7194,-0.7154,-0.714,-0.7112,-0.7094,-0.7085,-0.7057,-0.7039,-0.7002,-0.6989,-0.6994,-0.6933,-0.6913,-0.6869,-0.6861,-0.6848,-0.6839,-0.6848,-0.6809,-0.6805,-0.6802,-0.6788,-0.6783,-0.6841,-0.6841,-0.6841,-0.6841,0,-0.7149,-0.7121,-0.7103,-0.7068,-0.7048,-0.7021,-0.7001,-0.6983,-0.6975,-0.6959,-0.6922,-0.6897,-0.6864,-0.6854,-0.6846,-0.6809,-0.6811,-0.6812,-0.682,-0.6797,-0.6784,-0.6779,-0.6841,-0.6841,-0.6841,-0.6841,0,0,-0.7124,-0.7081,-0.7074,-0.7058,-0.7025,-0.7003,-0.6974,-0.6943,-0.6926,-0.6901,-0.6876,-0.6836,-0.6836,-0.6817,-0.6806,-0.6787,-0.6759,-0.679,-0.6789,-0.6784,-0.6715,-0.6714,-0.6708,-0.6756,-0.6755,-0.6755,-0.6717,0,-0.7092,-0.7042,-0.7028,-0.6984,-0.6958,-0.6949,-0.6924,-0.69,-0.6885,-0.686,-0.6843,-0.6814,-0.6818,-0.6806,-0.6786,-0.6767,-0.6745,-0.677,-0.6731,-0.673,-0.6737,-0.6701,-0.67,-0.6666,-0.6712,-0.6711,-0.6711,0,-0.7049,-0.7023,-0.6978,-0.6947,-0.6935,-0.6913,-0.6882,-0.6859,-0.6831,-0.6822,-0.68,-0.6791,-0.676,-0.677,-0.6725,-0.6742,-0.6725,-0.6713,-0.6712,-0.6706,-0.6718,-0.6693,-0.6655,-0.6649,-0.6703,-0.6704,-0.6704,0,-0.7033,-0.6987,-0.6954,-0.694,-0.6904,-0.6888,-0.6872,-0.6846,-0.6827,-0.68,-0.6788,-0.6757,-0.674,-0.6716,-0.6699,-0.6708,-0.6655,-0.6664,-0.6645,-0.6645,-0.6633,-0.6633,-0.6589,-0.6625,-0.6625,-0.6625,-0.6625,0,-0.6999,-0.6971,-0.6946,-0.6925,-0.6893,-0.6877,-0.6845,-0.6828,-0.6805,-0.678,-0.677,-0.6747,-0.6726,-0.6699,-0.6685,-0.665,-0.6642,-0.6632,-0.6629,-0.6632,-0.6633,-0.662,-0.6621,-0.6624,-0.6624,-0.6624,-0.6624,0,-0.6975,-0.6958,-0.692,-0.6889,-0.6881,-0.6858,-0.6831,-0.681,-0.6795,-0.6763,-0.6754,-0.673,-0.6698,-0.6678,-0.6638,-0.6628,-0.6588,-0.6586,-0.6598,-0.6596,-0.6576,-0.6578,-0.6521,-0.6511,-0.6555,-0.6555,-0.6554,0,-0.6954,-0.6932,-0.6899,-0.6882,-0.6866,-0.6838,-0.6819,-0.6803,-0.6783,-0.675,-0.6732,-0.67,-0.6673,-0.6622,-0.66,-0.6568,-0.6564,-0.6547,-0.6559,-0.6563,-0.6562,-0.6563,-0.656,-0.6544,-0.6543,-0.6543,-0.6543,0,-0.6917,-0.6909,-0.6883,-0.6853,-0.6831,-0.6807,-0.6782,-0.6768,-0.6747,-0.6726,-0.6693,-0.6672,-0.6631,-0.6598,-0.6565,-0.6547,-0.6541,-0.6539,-0.6533,-0.6535,-0.6542,-0.6536,-0.659,-0.654,-0.654,-0.6541,-0.6541,-0.6541,-0.6893,-0.6872,-0.6846,-0.6816,-0.6796,-0.6773,-0.6751,-0.6734,-0.6706,-0.6672,-0.6663,-0.6629,-0.6601,-0.6555,-0.6537,-0.6509,-0.6512,-0.6503,-0.65,-0.6498,-0.6496,-0.6548,-0.6503,-0.6503,-0.6503,-0.6503,-0.6503,0,-0.6854,-0.6836,-0.6809,-0.6776,-0.6752,-0.675,-0.6722,-0.6702,-0.6672,-0.6647,-0.6621,-0.6583,-0.6551,-0.6526,-0.6493,-0.6475,-0.6472,-0.6467,-0.6467,-0.6463,-0.6497,-0.6505,-0.6471,-0.6471,-0.6471,-0.6471,-0.6471,-0.6471,-0.6831,-0.6796,-0.6785,-0.6739,-0.6722,-0.6688,-0.6672,-0.6651,-0.6631,-0.6589,-0.6562,-0.6547,-0.6522,-0.6487,-0.6457,-0.645,-0.6438,-0.6433,-0.6426,-0.6458,-0.6461,-0.6464,-0.6472,-0.6431,-0.6431,-0.6395,-0.6395,-0.6394]}]]